fbpx

Tur de Iasi
Rezultate Tur de Iasi 2016- editia a 8-a – 09 octombrie 2016
inapoi la competitii


Traseul ELITE, categoria ELITE 18-29

Nr.NumeLocalitateClubStatusCh.1
Total/Lap
Ch.2
Total/Lap
TimpPozitieClasament Gen.
406Roman Ionut Alexandru IasiPiciu TeamOK01:13:2002:26:37 / 01:13:1702:26:3711
401Coliba Cosmin GalatiBike-Mania Squeezy IasiOK01:21:1402:59:41 / 01:38:2702:59:4124
408stefan Riciu IasiHPM Running TeamOK01:33:5003:14:08 / 01:40:1803:14:0837
407Rosu Lucian IasiHPM Running TeamOK01:43:1103:54:19 / 02:11:0803:54:19410
419Domocos Andrei Ciprian OK02:09:4104:41:41 / 02:32:0004:41:41512
403Diac Paul IasiHPM Running TeamAbandon01:35:43- - --
400Anton Mihai BacauBike Mania IasiDNS-- - --
402Condrea Flavius IasiDNS-- - --
404Girdea Mihai IasiDNS-- - --
405Halip Adrian IasiDNS-- - --
409Vasile Claudiu HusiDNS-- - --

Traseul ELITE, categoria ELITE 30-39

Nr.NumeLocalitateClubStatusCh.1
Total/Lap
Ch.2
Total/Lap
TimpPozitieClasament Gen.
414Preda Razvan IasiHPM Pro Mountain SportsOK01:24:3902:48:31 / 01:23:5202:48:3112
416Toncu Ionut IasiHPM - Pro Mountain CyclingOK01:26:3803:00:08 / 01:33:3003:00:0825
418Vrabiuta Cristian Gura HumoruluiBucovina powerOK01:33:3603:22:14 / 01:48:3803:22:1438
417Ursu Gabi IasiOK02:13:3704:39:34 / 02:25:5704:39:34411
412Hij Bogdan IasiAbandon02:08:58- - --
413Plugaru Bogdan iasiAbandon02:44:10- - --
415Puiu Daniel IasiAbandon03:00:12- - --
410Bogdan Baianu IasiDNS-- - --
411Eugen Mocanu iasiHPM - Pro Mountain CyclingDNS-- - --

Traseul ELITE, categoria SUPERFETE ELITE OPEN

Nr.NumeLocalitateClubStatusCh.1
Total/Lap
Ch.2
Total/Lap
TimpPozitieClasament Gen.
500Alexandra Aonofriesei IasiOK02:13:0804:45:47 / 02:32:3904:45:47113

Traseul ELITE, categoria ELITE 40+

Nr.NumeLocalitateClubStatusCh.1
Total/Lap
Ch.2
Total/Lap
TimpPozitieClasament Gen.
248Vasiliu Alexandru IasiHPM ProMountain CyclingOK01:25:1202:56:59 / 01:31:4702:56:5913
420Galatanu Adrian Mihai SuceavaVee Tire TeamOK01:32:2503:12:32 / 01:40:0703:12:3226
422Harat Batog Adrian IasiHPM Cycling TeamOK01:40:3903:33:21 / 01:52:4203:33:2139
421Filip Mircea IasiOK02:55:2205:32:04 / 02:36:4205:32:04414
423Pasciuc Sergiu Florin iasiAbandon02:55:59- - --

Traseul HOBBY, categoria HOBBY under 18

Nr.NumeLocalitateClubStatusCh.1
Total/Lap
Ch.2
Total/Lap
TimpPozitieClasament Gen.
110Pal Horia Valea LupuluiHPM Cycling TeamOK01:23:11-01:23:1113
111Pintea Vlad Valentin BacauTusnad Cycling TeamOK01:23:50-01:23:5025
112Vatamanu Calin IasiBike ManiaOK01:37:51-01:37:51325
103Craciun Tudor IasiOK01:39:52-01:39:52429
105David Dorcu RomanBiciclistii amatori din RomanOK01:48:22-01:48:22536
104Cristea Tudor Florin BacauHAPPY SPORTOK01:50:30-01:50:30640
109Oprea Calin SuceavaA.C.S Vee Tire TeamOK01:52:36-01:52:36745
106Hriscu Matei IasiOK01:52:39-01:52:39846
108Marco Hatmanu IasiOK01:53:42-01:53:42948
101Chelban George Liviu IasiOK01:59:33-01:59:331063
107Lisacoschi Eduard IasiOK02:17:53-02:17:531198
100Aramescu George Cosmin RomanBiciclistii amatori din RomanOK02:19:14-02:19:141299
113Zaharia Daniel IasiOK02:25:51-02:25:5113108
1010Pricope Stefan IasiCatena Racing TeamDNS-- - --
102Chisca Gabriel IasiDNS-- - --

Traseul HOBBY, categoria HOBBY 18-29

Nr.NumeLocalitateClubStatusCh.1
Total/Lap
Ch.2
Total/Lap
TimpPozitieClasament Gen.
123Cosmin Matei SuceavaMonticond SuceavaOK01:19:07-01:19:0711
114Abed Ghadir NazarethRomania te iubescOK01:22:01-01:22:0122
135Marin Sebastian Laurentiu MoinestiHPM - Pro Mountain CyclingOK01:23:17-01:23:1734
154Sucila Radu Traian iasiOK01:27:04-01:27:0446
136Marza Florin GalatiMausbike TibiscusOK01:27:08-01:27:0857
256Munteanu Constantin IasiFollow Me StoreOK01:27:16-01:27:1668
127Floca George ClujBike-Mania IasiOK01:28:51-01:28:51710
116Arhire Adrian-Rober iasiOK01:29:45-01:29:45811
156Tudor Strachinescu IasiOK01:30:07-01:30:07912
139Mindrescu Andrei Daniel BacauELEPHANT BIKE CLUBOK01:32:02-01:32:021013
120Cazacu Raducu iasiOK01:32:40-01:32:401115
128Gilca Ciprian iasiPiciu TeamOK01:34:50-01:34:501221
137Matei Lupascu IasiOK01:36:15-01:36:151322
153Stafie George IasiOK01:37:23-01:37:231423
147Pricopi Alexandru Emanuel BacauHappy Sport Cycling GroupOK01:37:57-01:37:571526
155Topala Bogdan IasiOff Road LoversOK01:42:10-01:42:101631
152Simionescu Bogdan IasiOK01:47:16-01:47:161735
158Valeanu Ionut iasiPiciu TeamOK01:48:41-01:48:411837
157Tundrea Vlad IasiOK01:49:52-01:49:521939
149Racautanu Alexandru IasiBike-Mania IasiOK01:50:33-01:50:332041
118Barcan Vasile IasiIasibikeOK01:55:18-01:55:182149
132Ichim Dan SuceavaASSIST Biking ClubOK01:57:04-01:57:042255
134Magureanu Alexandru IasiOK01:57:27-01:57:272357
145Pohoata Andrei IasiOK01:57:37-01:57:372459
124Damian Marius IasiIngineri pe doua rotiOK01:59:42-01:59:422564
129Gilca Radu-Cosmin IasiIngineri pe doua rotiOK02:00:00-02:00:002666
117Axinte Marius VASLUIONOMEUS.ROOK02:07:56-02:07:562779
262Ciprian Talmacel IasiOK02:11:48-02:11:482888
138Maxim Ciprian Gheorghe IasiOK02:25:36-02:25:3629107
142Onofrei Bogdan VASLUIONOMEUS.ROOK02:27:18-02:27:1830112
131Hrebenciuc stefan IasiOK02:29:18-02:29:1831116
268Solomon Robert GalatiBike WorksOK02:31:25-02:31:2532118
265Sleghel Eduard IasiRMSOK02:32:43-02:32:4333120
148Puiu Alin IasiOK02:35:18-02:35:1834122
143Patrascu Dan IasiOK02:36:07-02:36:0735123
122Chiriac George Gabriel IasiOK02:45:13-02:45:1336131
150Rata Alexandru Iasi-OK02:47:04-02:47:0437134
115Andrei Alecsandru IasiOK02:48:24-02:48:2438138
260Pomirleanu Catalin Cristian IasiRomSoft Cycling TeamOK02:57:45-02:57:4539144
141Odobasa Andrei IasiOK03:10:55-03:10:5540148
119Buznosu Dan George IasiDNS-- - --
121Chiculita Catalin IasiDNF-- - --
125Damoc Andrei SabaoaniAbandon-- - --
126Delescu Andi IasiDNF-- - --
130Grigoras Alexandru IasiDNS-- - --
133Lazar Andrei iasiDNS-- - --
140Nistor Bogdan BacauDNS-- - --
144Plutaru Florin IasiDNS-- - --
146Prichici George-Andrei Roman jud. NeamtBiciclistii romascaniAbandon-- - --
151Rebegea Ionut IasiDNS-- - --
159Visan Adrian IasiHPM-Pro Mountain CyclingDNS-- - --
160Vizitiu Adrian IasiDNS-- - --

Traseul HOBBY, categoria HOBBY 30-39

Nr.NumeLocalitateClubStatusCh.1
Total/Lap
Ch.2
Total/Lap
TimpPozitieClasament Gen.
204Maleanu Alexandru IasiOK01:32:12-01:32:12114
177Ciobanu Tudorel-Sebastian IasiOK01:33:31-01:33:31216
162Agafiti Tiberius Andrei IasiIasiOK01:34:12-01:34:12317
214Pop Bogdan IasiOK01:34:40-01:34:40419
207Michia Florin BacauELEPHANT BIKE CLUBOK01:34:47-01:34:47520
223Ursanu Andrei IasiOK01:37:37-01:37:37624
192Gradinariu Daniel IasiOff Road LoversOK01:43:27-01:43:27732
222Tanasa Madalin IasiHPM Pro Mountain Cycling Iasi OK01:45:10-01:45:10833
220Stefan Olaru IasiOK01:49:42-01:49:42938
183Crihan George IasiHPM Pro Mounting CyclingOK01:51:18-01:51:181042
210Palel Teodor Alexandru iasiOK01:51:55-01:51:551143
206Matenciuc Cristian IasiOK01:52:28-01:52:281244
218Sitaru Cristi IasiOK01:53:02-01:53:021347
253Manole Dan Bacau OK01:55:53-01:55:531450
259Pipirigeanu Adrian IasiOK01:56:17-01:56:171551
184Cristian Spoiala SuceavaASSIST Biking ClubOK01:56:31-01:56:311652
182Crihan Dragos Iasi-Aroneanu HPM Cycling Team OK01:56:47-01:56:471753
187Dediu Bogdan Iulian GalatiOK01:56:52-01:56:521854
200Gherasim Claudiu BacauOK01:57:10-01:57:101956
190Gavrila George IasiIngineri pe doua rotiOK01:58:20-01:58:202061
219Soltuz Bogdan IasiOK01:58:50-01:58:502162
221Strateanu Dan-stefan IASIBikes4RideOK02:00:08-02:00:082267
173Bura Alex IasiIngineri pe doua rotiOK02:00:42-02:00:422368
179Constantinescu Adrian BacauOn the EdgeOK02:05:11-02:05:112473
255Cepoi Adrian BacauOK02:05:19-02:05:192574
171Bordeianu Wiliam Constantin IASIOK02:06:15-02:06:152675
163Alex Sabasanu IasiRomsoft Cycling TeamOK02:06:41-02:06:412777
269Dragos Adam IasiOK02:06:49-02:06:492878
266Apostol Nicu IasiOK02:08:24-02:08:242980
202Lavric Ciprian Dumitru IasiOK02:08:54-02:08:543082
189Farcas Stefanita IasiRomSoft Cycling TeamOK02:09:18-02:09:183183
263Jalba Andrei IasiOK02:11:58-02:11:583289
181Cretu Tudor IasiOK02:13:38-02:13:383391
164Alexandru Baciu IasiKineticFITOK02:13:47-02:13:473492
198Iacob Adrian RomanBiciclistii amatori din RomanOK02:14:54-02:14:543593
193Hagiu George IasiOff Road LoversOK02:16:42-02:16:423695
213Placinta Armin RadautiFresh'n'FunkyOK02:17:51-02:17:513797
209Muraru Adrian RomanBiciclistii amatori din RomanOK02:20:40-02:20:4038101
186Damian Andrei RomanOK02:22:03-02:22:0339103
216Sava Stan-Gabriel IasiOK02:23:33-02:23:3340105
175Ciobanu Gabriel IasiContinentalOK02:24:30-02:24:3041106
178Codreanu Cristian IasiOK02:27:16-02:27:1642111
215Sardaru Dragos Iasinici unulOK02:27:42-02:27:4243113
170Borcan Tiberiu IasiHPM Running TeamOK02:27:59-02:27:5944114
191Gherasim Stefan Cornel iasiOK02:28:18-02:28:1845115
176Ciobanu Silviu Marian IasiOK02:30:06-02:30:0646117
201Iulian Rotaru IasiOK02:38:26-02:38:2647124
196Hen Titus Victor IasiHPM Running TeamOK02:39:48-02:39:4848126
166Aramescu Cezar RomanBiciclistii amatori din RomanOK02:40:15-02:40:1549127
211Paris Silviu BucurestiOK02:44:40-02:44:4050129
169Bogdan Gabriel Turcanu SuceavaOK02:44:55-02:44:5551130
174Catalin Chiriac BacauAsociatia RenaultOK02:45:23-02:45:2352132
205Marca Radu Nicolae Bacauon-the-edgeOK02:47:33-02:47:3353135
197Husaru Nechita George Sorin RomanNici unulOK02:47:42-02:47:4254136
203Lucaci Ionut Marius SuceavaOK02:48:22-02:48:2255137
254Doroftei Marius IasiOK02:48:31-02:48:3156139
168Bejan Catalin - Bogdan IasiOK02:49:11-02:49:1157140
194Hantascu Ady IasiOK02:49:39-02:49:3958141
258Grosu Marian George IasiOK02:55:46-02:55:4659143
188Dusceac Ion RomanBiciclistii amatori din RomanOK02:58:00-02:58:0060145
195Hariton Claudiu IasiRomSoft Cycling TeamOK03:05:19-03:05:1961147
161Adrian Moroi IasiCentricOK03:15:18-03:15:1862149
185Csergo Gabriel IasiOK03:20:32-03:20:3263150
212Petrone Septimiu Luigi iasiAbandon-- - --
217Simiuc Iulian IasiIasiBikeAbandon-- - --
165Andrei Lucian IasiDNF-- - --
167Baranov Nicolae IasiDNS-- - --
172Bostan Vlasov Matei IasiAbandon-- - --
180Corciova Daniel IasiDNF-- - --
199Ionita Andrei iasi valea lupuluiDNS-- - --
208Munteanu Radu-Alexandru IasiDNF-- - --

Traseul HOBBY, categoria HOBBY 40+

Nr.NumeLocalitateClubStatusCh.1
Total/Lap
Ch.2
Total/Lap
TimpPozitieClasament Gen.
244Pal Eugen Stefan Valea LupuluiHPM Cycling TeamOK01:27:32-01:27:3219
236Ilie Cosmin Gabriel IasiBike Mania IasiOK01:34:39-01:34:39218
238Lipsa Ciprian GalatiClubul de Ciclism GalatiOK01:38:18-01:38:18327
249Vlad Eugen Nicusor iasiPiciu TeamOK01:38:45-01:38:45428
250Vlase Alexandru Iasi OK01:46:36-01:46:36534
233Enache Bogdan IasiStravarache's TeamOK01:57:28-01:57:28658
240Lupu Teodor IasiOK01:57:46-01:57:46760
230Dascalescu Ion IasiW2W OK02:01:19-02:01:19869
227Coman Ciprian IasiAmatorOK02:08:35-02:08:35981
257Calarasanu George IasiGo to 3DOK02:09:51-02:09:511084
232Emanuil Marius Bogdan Bacau OK02:10:11-02:10:111185
241Nastasa Constantin Roman judetul NeamtClub RidersOK02:11:05-02:11:051286
246Tal Danut BACAUOK02:11:08-02:11:081387
231Dolhascu Tudor Iasi W2W OK02:13:01-02:13:011490
261Maxim Bogdan IasiGiant Team RomaniaOK02:15:11-02:15:111594
245Prisacaru Ovidiu IasiW2WOK02:19:19-02:19:1916100
247Tincu Cristian IasiOK02:20:43-02:20:4317102
224Barbu Nicu - Angelin IasiWings to Wheels (W2W)OK02:23:13-02:23:1318104
225Berheci Gabriel BotosaniOK02:26:18-02:26:1819109
243Oprea Alexandru SuceavaSuceava PedaleazaOK02:26:52-02:26:5220110
226Borcia Catalin IasiOK02:32:21-02:32:2121119
242Nita Lucian IasiRomSoft Cycling TeamOK02:33:22-02:33:2222121
239Lupu Costel IasiOK03:04:31-03:04:3123146
267Cozac Tudor IasiOK03:31:25-03:31:2524152
228Costea Constantin RomanBiciclistii amatori din RomanOK03:54:13-03:54:1325154
229Cristea Florin BacauHAPPYSPORTDNF-- - --
234Gafta Calin IasiW2WDNS-- - --
235Hristea Cristinel Constantin IasiDNS-- - --
237Ioan Savin IasiDNF-- - --
251Zaharia Valentin GALATIDNF-- - --
252Zbranca Laurentiu IasiBike-Mania Iasi DNF-- - --
264Cezar Rusu IasiAbandon-- - --

Traseul HOBBY, categoria SUPERFETE HOBBY 18-29

Nr.NumeLocalitateClubStatusCh.1
Total/Lap
Ch.2
Total/Lap
TimpPozitieClasament Gen.
350Marin Ioana stefania MoinestiI Wheel Bike ClubOK01:59:46-01:59:46165
352Costin Adriana IasiAjungem MariOK02:01:25-02:01:25270
351Abramiuc Maria IasiHPM Running TeamOK02:04:01-02:04:01371
353Diana Tanasa IasiIasiBikeOK02:04:48-02:04:48472
354Michia Bianca BacauELEPHANT BIKE CLUBOK02:46:17-02:46:175133
355Mindrescu Rebeca BacauELEPHANT BIKE CLUBOK02:55:38-02:55:386142
356Muraru Adina RomanBiciclistii amatori din RomanOK03:40:48-03:40:487153
357Neamtu Irina IasiDNF-- - --
358Vraciu Paula BacauDNS-- - --

Traseul HOBBY, categoria SUPERFETE HOBBY 30+

Nr.NumeLocalitateClubStatusCh.1
Total/Lap
Ch.2
Total/Lap
TimpPozitieClasament Gen.
365Rimniceanu Roxana IasiHPM-Pro Mountain CyclingOK01:41:40-01:41:40130
369Avasilichioaiei Elena BotosaniCiclism BotosaniOK02:06:40-02:06:40276
366Roset Ioana IasiEnjoy the silenceOK02:17:07-02:17:07396
367Stanica Mioara BACAUOK02:39:03-02:39:034125
361Bejan Mihaela IasiRomSoft Cycling TeamOK02:42:40-02:42:405128
359Anca Chiriac BacauOK03:22:25-03:22:256151
362Costea Carmen RomanBiciclistii amatori din RomanOK04:50:43-04:50:437155
360Baciu Mihaela Alina Iasi OK05:10:34-05:10:348156
368Tuduri Roberta Gabriela IasiOK05:43:21-05:43:219157
363Dragan Ana-Maria IasiDNS-- - --
364Husaru Petronela RomanBiciclistii amatori din RomanDNS-- - --